Rechercher aéroport 
image banner adimage banner adimage banner ad
image banner ad

KONT - Ontario Intl

Situé à Ontario, United States

ICAO - ONT, IATA - ONT

Données fournies par Airmate  

Information générale

Coordonnées: N34°3'22" W117°36'4"
Élévation : 944 feet MSL.
Variation magnétique : 12° East
Voir autres Aéroports à California

Données opérationnelles

Special qualification required
Heure actuelle UTC:
Heure actuelle locale:
Météo
METAR: KONT 210253Z 24007KT 10SM CLR 27/13 A2994 RMK AO2 SLP123 T02720128 53019
TAF: KONT 202324Z 2100/2206 26011KT P6SM SKC FM210400 VRB04KT P6SM SKC FM212000 26011KT P6SM SKC FM220400 VRB04KT P6SM SKC
Voir NOTAMs / SUP AIP / TFR affectant cet aéroport [VIEW]
Fréquences de communication: [VIEW]

Pistes:

Identifiant RWYQFULongueur (ft)Largeur (ft)SurfaceLDA (ft)
08R90°10200150CONC10200
26L270°10200150CONC10200
08L90°12197150CONC11200
26R270°12197150CONC12197

Coordonnées de l'aéroport

Adresse: Ontario United States

Vue satellite de KONT